User: anonymous   Login
Location: Unspecified
(0.0000°N, 0.0000°E)
Time: 07:55:53
(UTC+00:00)
Language:

TEMPEST-D - Orbit

View from above orbital plane
View from above orbital plane
View from above satellite
View from above satellite

Ground track
Ground track

The orbit data is extracted from the following two-line orbital elements,

1 43547U 98067NV  20223.89017948 +.00009731 +00000-0 +10988-3 0  9997
2 43547 051.6366 036.9210 0004029 261.2351 098.8187 15.63213404118031
Epoch (UTC): 10 August 2020 21:21:51
Eccentricity: 0.0004029
inclination: 51.6366°
perigee height: 375 km
apogee height: 381 km
right ascension of ascending node: 36.9210°
argument of perigee: 261.2351°
revolutions per day: 15.63213404
mean anomaly at epoch: 98.8187°
orbit number at epoch: 11803

The dashed part of the orbit path shows where the satellite is in the earth's shadow,  

DLR